BAW2191 LIRF-LIMJ

Flight info

Callsign BAW2191
Flight time 0h 51m
Altitude 28000
Route NENIG7L GILIO DCT ELB DCT BETEN/N0355F180 M729 IDONA IDONA1J
Aircraft A21N/M-SDE3FGIJ1LRWXYZ/SB1G1

Departure

Time 2026-05-06 20:42
Airport Rome–Fiumicino Leonardo da Vinci International Airport (LIRF)

Arrival

Time 2026-05-06 21:33
Airport Genoa Cristoforo Colombo Airport (LIMJ)
Time Latitude Longitude Altitude Speed Heading
2026-05-06 19:51 41.79650 12.24873 21 ft 0 kts 250°
2026-05-06 20:25 41.79650 12.24872 21 ft 1 kts 250°
2026-05-06 20:25 41.79649 12.24870 21 ft 0 kts 250°
2026-05-06 20:28 41.79653 12.24885 23 ft 4 kts 251°
2026-05-06 20:29 41.79662 12.24919 22 ft 4 kts 248°
2026-05-06 20:29 41.79675 12.24949 26 ft 4 kts 221°
2026-05-06 20:29 41.79697 12.24961 26 ft 4 kts 178°
2026-05-06 20:29 41.79716 12.24957 24 ft 1 kts 166°
2026-05-06 20:30 41.79720 12.24956 24 ft 0 kts 166°
2026-05-06 20:32 41.79719 12.24956 24 ft 1 kts 166°
2026-05-06 20:32 41.79716 12.24975 26 ft 4 kts 58°
2026-05-06 20:32 41.79732 12.24965 22 ft 0 kts 296°
2026-05-06 20:34 41.79733 12.24963 22 ft 1 kts 296°
2026-05-06 20:34 41.79749 12.24941 22 ft 5 kts 328°
2026-05-06 20:34 41.79797 12.24914 22 ft 9 kts 337°
2026-05-06 20:34 41.79867 12.24877 21 ft 12 kts 340°
2026-05-06 20:35 41.79951 12.24835 21 ft 14 kts 340°
2026-05-06 20:35 41.80051 12.24786 19 ft 16 kts 341°
2026-05-06 20:35 41.80166 12.24788 20 ft 18 kts 35°
2026-05-06 20:35 41.80207 12.24935 22 ft 13 kts 90°
2026-05-06 20:36 41.80209 12.25073 23 ft 16 kts 79°
2026-05-06 20:36 41.80247 12.25223 24 ft 18 kts 69°
2026-05-06 20:36 41.80295 12.25390 22 ft 20 kts 71°
2026-05-06 20:36 41.80343 12.25573 20 ft 22 kts 69°
2026-05-06 20:37 41.80392 12.25748 19 ft 16 kts 70°
2026-05-06 20:37 41.80402 12.25785 21 ft 16 kts 70°
2026-05-06 20:37 41.80419 12.25846 20 ft 19 kts 70°
2026-05-06 20:37 41.80468 12.26024 19 ft 22 kts 70°
2026-05-06 20:38 41.80522 12.26222 18 ft 24 kts 70°
2026-05-06 20:38 41.80582 12.26439 21 ft 26 kts 70°
2026-05-06 20:38 41.80647 12.26672 18 ft 27 kts 69°
2026-05-06 20:38 41.80671 12.26760 17 ft 8 kts 70°
2026-05-06 20:39 41.80693 12.26837 18 ft 10 kts 70°
2026-05-06 20:39 41.80718 12.26931 14 ft 12 kts 70°
2026-05-06 20:39 41.80734 12.26989 16 ft 4 kts 68°
2026-05-06 20:39 41.80752 12.27031 14 ft 7 kts 43°
2026-05-06 20:40 41.80806 12.27041 14 ft 9 kts 343°
2026-05-06 20:40 41.80848 12.27021 14 ft 0 kts 340°
2026-05-06 20:40 41.80855 12.27018 14 ft 0 kts 340°
2026-05-06 20:40 41.80856 12.27018 14 ft 0 kts 340°
2026-05-06 20:41 41.80883 12.27004 14 ft 11 kts 340°
2026-05-06 20:41 41.80952 12.26952 15 ft 13 kts 298°
2026-05-06 20:41 41.80930 12.26825 16 ft 18 kts 250°
2026-05-06 20:41 41.80791 12.26326 22 ft 94 kts 251°
2026-05-06 20:42 41.80491 12.25246 17 ft 155 kts 248°
2026-05-06 20:42 41.80112 12.23736 387 ft 173 kts 250°
2026-05-06 20:42 41.79707 12.22251 1079 ft 171 kts 241°
2026-05-06 20:42 41.79188 12.20780 1730 ft 178 kts 232°
2026-05-06 20:43 41.78260 12.19627 2229 ft 193 kts 209°
2026-05-06 20:43 41.77041 12.18676 2705 ft 214 kts 207°
2026-05-06 20:43 41.75675 12.17610 3324 ft 240 kts 208°
2026-05-06 20:43 41.75174 12.17212 3519 ft 245 kts 209°
2026-05-06 20:44 41.74712 12.16845 3669 ft 246 kts 210°
2026-05-06 20:44 41.73232 12.15660 3907 ft 251 kts 210°
2026-05-06 20:44 41.71740 12.14465 3971 ft 248 kts 209°
2026-05-06 20:44 41.70275 12.13219 3973 ft 251 kts 217°
2026-05-06 20:45 41.69138 12.11449 3965 ft 255 kts 238°
2026-05-06 20:45 41.68573 12.09187 3964 ft 261 kts 259°
2026-05-06 20:45 41.68694 12.06758 3963 ft 266 kts 281°
2026-05-06 20:45 41.69531 12.04535 4202 ft 272 kts 306°
2026-05-06 20:46 41.70986 12.02883 5297 ft 279 kts 328°
2026-05-06 20:46 41.72830 12.02015 6405 ft 284 kts 345°
2026-05-06 20:46 41.74779 12.01468 7422 ft 288 kts 347°
2026-05-06 20:46 41.76724 12.00768 8453 ft 291 kts 335°
2026-05-06 20:47 41.78361 11.99197 9465 ft 291 kts 308°
2026-05-06 20:47 41.79526 11.96968 10419 ft 298 kts 299°
2026-05-06 20:47 41.80644 11.94511 10940 ft 320 kts 298°
2026-05-06 20:47 41.81841 11.91882 11461 ft 341 kts 299°
2026-05-06 20:48 41.83107 11.89125 12163 ft 352 kts 299°
2026-05-06 20:48 41.84410 11.86307 13013 ft 358 kts 300°
2026-05-06 20:48 41.85737 11.83441 13771 ft 365 kts 299°
2026-05-06 20:48 41.86833 11.80377 14582 ft 365 kts 285°
2026-05-06 20:49 41.87427 11.77067 15444 ft 366 kts 278°
2026-05-06 20:49 41.87909 11.73703 16278 ft 369 kts 278°
2026-05-06 20:49 41.88392 11.70308 17109 ft 373 kts 278°
2026-05-06 20:49 41.88886 11.66877 17918 ft 377 kts 278°
2026-05-06 20:50 41.89400 11.63407 18625 ft 381 kts 279°
2026-05-06 20:50 41.90217 11.59997 19292 ft 388 kts 291°
2026-05-06 20:50 41.91652 11.56894 19962 ft 397 kts 306°
2026-05-06 20:50 41.93523 11.54144 20641 ft 401 kts 310°
2026-05-06 20:51 41.94810 11.52361 21079 ft 402 kts 310°
2026-05-06 20:51 41.96764 11.49654 21738 ft 405 kts 310°
2026-05-06 20:51 41.98718 11.46919 22402 ft 407 kts 309°
2026-05-06 20:51 42.00676 11.44156 23059 ft 409 kts 309°
2026-05-06 20:52 42.03283 11.40457 23846 ft 412 kts 309°
2026-05-06 20:52 42.05249 11.37662 24514 ft 411 kts 308°
2026-05-06 20:52 42.06573 11.35779 24963 ft 409 kts 308°
2026-05-06 20:52 42.08527 11.32997 25640 ft 407 kts 308°
2026-05-06 20:53 42.10467 11.30232 26340 ft 405 kts 308°
2026-05-06 20:53 42.12397 11.27478 26987 ft 404 kts 307°
2026-05-06 20:53 42.14297 11.24760 27593 ft 403 kts 307°
2026-05-06 20:53 42.16242 11.21981 27905 ft 402 kts 307°
2026-05-06 20:54 42.18154 11.19245 27983 ft 400 kts 307°
2026-05-06 20:54 42.20035 11.16551 27987 ft 400 kts 307°
2026-05-06 20:54 42.21941 11.13816 27981 ft 400 kts 307°
2026-05-06 20:54 42.23847 11.11081 27976 ft 400 kts 307°
2026-05-06 20:55 42.25777 11.08306 27976 ft 400 kts 307°
2026-05-06 20:55 42.27656 11.05603 27972 ft 400 kts 307°
2026-05-06 20:55 42.29560 11.02864 27976 ft 400 kts 307°
2026-05-06 20:55 42.31464 11.00121 27973 ft 400 kts 307°
2026-05-06 20:56 42.33366 10.97377 27976 ft 400 kts 307°
2026-05-06 20:56 42.35266 10.94636 27980 ft 400 kts 307°
2026-05-06 20:56 42.37169 10.91888 27974 ft 400 kts 307°
2026-05-06 20:56 42.39070 10.89143 27967 ft 400 kts 307°
2026-05-06 20:57 42.40969 10.86396 27960 ft 400 kts 307°
2026-05-06 20:57 42.42868 10.83648 27959 ft 400 kts 307°
2026-05-06 20:57 42.44769 10.80896 27957 ft 400 kts 307°
2026-05-06 20:57 42.46668 10.78142 27959 ft 400 kts 307°
2026-05-06 20:58 42.48563 10.75386 27965 ft 400 kts 306°
2026-05-06 20:58 42.50457 10.72630 27973 ft 400 kts 307°
2026-05-06 20:58 42.52355 10.69872 27977 ft 399 kts 306°
2026-05-06 20:58 42.54247 10.67119 27972 ft 400 kts 306°
2026-05-06 20:59 42.56143 10.64359 27971 ft 400 kts 306°
2026-05-06 20:59 42.58035 10.61601 27966 ft 400 kts 306°
2026-05-06 20:59 42.59927 10.58836 27955 ft 400 kts 306°
2026-05-06 20:59 42.61821 10.56069 27962 ft 401 kts 306°
2026-05-06 21:00 42.63716 10.53284 27958 ft 402 kts 306°
2026-05-06 21:00 42.65614 10.50496 27957 ft 402 kts 306°
2026-05-06 21:00 42.67515 10.47705 27957 ft 402 kts 306°
2026-05-06 21:00 42.69417 10.44918 27956 ft 402 kts 306°
2026-05-06 21:01 42.71320 10.42130 27954 ft 402 kts 306°
2026-05-06 21:01 42.73367 10.39499 27945 ft 410 kts 316°
2026-05-06 21:01 42.75806 10.37413 27974 ft 417 kts 324°
2026-05-06 21:01 42.78354 10.35514 27966 ft 418 kts 324°
2026-05-06 21:02 42.80914 10.33626 27956 ft 418 kts 324°
2026-05-06 21:02 42.83464 10.31727 27952 ft 418 kts 324°
2026-05-06 21:02 42.86017 10.29814 27951 ft 418 kts 324°
2026-05-06 21:02 42.88563 10.27893 27951 ft 418 kts 324°
2026-05-06 21:03 42.91105 10.25972 27954 ft 418 kts 324°
2026-05-06 21:03 42.93652 10.24048 27953 ft 418 kts 324°
2026-05-06 21:03 42.96195 10.22124 27953 ft 418 kts 324°
2026-05-06 21:03 42.98732 10.20200 27993 ft 418 kts 323°
2026-05-06 21:04 43.01273 10.18274 27972 ft 417 kts 323°
2026-05-06 21:04 43.03809 10.16349 27962 ft 416 kts 323°
2026-05-06 21:04 43.06325 10.14440 27960 ft 413 kts 323°
2026-05-06 21:04 43.08836 10.12529 27957 ft 413 kts 323°
2026-05-06 21:05 43.11343 10.10617 27958 ft 413 kts 323°
2026-05-06 21:05 43.13845 10.08712 27956 ft 409 kts 323°
2026-05-06 21:05 43.16318 10.06828 27957 ft 408 kts 323°
2026-05-06 21:05 43.18813 10.04917 27960 ft 413 kts 323°
2026-05-06 21:06 43.21323 10.02997 27972 ft 414 kts 323°
2026-05-06 21:06 43.23803 10.01099 27971 ft 414 kts 323°
2026-05-06 21:06 43.26340 9.99156 27885 ft 408 kts 323°
2026-05-06 21:06 43.28779 9.97288 27148 ft 407 kts 323°
2026-05-06 21:07 43.31267 9.95373 26220 ft 413 kts 323°
2026-05-06 21:07 43.33772 9.93444 25496 ft 412 kts 323°
2026-05-06 21:07 43.36262 9.91531 24897 ft 409 kts 324°
2026-05-06 21:07 43.38731 9.89633 24314 ft 404 kts 324°
2026-05-06 21:08 43.41174 9.87753 23743 ft 401 kts 324°
2026-05-06 21:08 43.43596 9.85887 23119 ft 397 kts 324°
2026-05-06 21:08 43.45994 9.84035 22468 ft 393 kts 324°
2026-05-06 21:08 43.48365 9.82202 21869 ft 389 kts 324°
2026-05-06 21:09 43.50719 9.80383 21252 ft 386 kts 324°
2026-05-06 21:09 43.53047 9.78582 20648 ft 382 kts 324°
2026-05-06 21:09 43.55356 9.76795 20053 ft 379 kts 324°
2026-05-06 21:09 43.57641 9.75026 19475 ft 375 kts 324°
2026-05-06 21:10 43.59908 9.73268 19009 ft 373 kts 324°
2026-05-06 21:10 43.62168 9.71513 18730 ft 372 kts 324°
2026-05-06 21:10 43.64416 9.69765 18476 ft 371 kts 324°
2026-05-06 21:10 43.66658 9.68020 18216 ft 369 kts 324°
2026-05-06 21:11 43.68890 9.66282 17945 ft 368 kts 324°
2026-05-06 21:11 43.71108 9.64553 17595 ft 365 kts 324°
2026-05-06 21:11 43.73314 9.62828 17188 ft 363 kts 324°
2026-05-06 21:11 43.75505 9.61113 16748 ft 361 kts 325°
2026-05-06 21:12 43.77689 9.59406 16292 ft 360 kts 325°
2026-05-06 21:12 43.79865 9.57706 15874 ft 359 kts 325°
2026-05-06 21:12 43.82033 9.56008 15469 ft 357 kts 325°
2026-05-06 21:12 43.84188 9.54317 15070 ft 355 kts 325°
2026-05-06 21:13 43.86336 9.52633 14655 ft 354 kts 325°
2026-05-06 21:13 43.88478 9.50951 14232 ft 354 kts 325°
2026-05-06 21:13 43.90615 9.49271 13827 ft 353 kts 326°
2026-05-06 21:13 43.92746 9.47599 13392 ft 352 kts 326°
2026-05-06 21:14 43.94859 9.45927 12961 ft 347 kts 326°
2026-05-06 21:14 43.96936 9.44283 12524 ft 339 kts 325°
2026-05-06 21:14 43.98782 9.42375 12132 ft 325 kts 309°
2026-05-06 21:14 44.00141 9.39924 11788 ft 318 kts 300°
2026-05-06 21:15 44.01372 9.37385 11420 ft 316 kts 300°
2026-05-06 21:15 44.02603 9.34848 11048 ft 317 kts 300°
2026-05-06 21:15 44.04068 9.32561 10571 ft 318 kts 317°
2026-05-06 21:15 44.05795 9.30719 10031 ft 309 kts 319°
2026-05-06 21:16 44.07607 9.29137 9378 ft 308 kts 335°
2026-05-06 21:16 44.09699 9.28694 8860 ft 305 kts
2026-05-06 21:16 44.11673 9.29626 8358 ft 301 kts 34°
2026-05-06 21:16 44.13039 9.31785 8004 ft 298 kts 68°
2026-05-06 21:17 44.13424 9.34501 7571 ft 281 kts 88°
2026-05-06 21:17 44.14011 9.37034 7251 ft 278 kts 54°
2026-05-06 21:17 44.15457 9.38657 6891 ft 263 kts 18°
2026-05-06 21:17 44.17193 9.38816 6487 ft 245 kts 339°
2026-05-06 21:18 44.18517 9.37566 6034 ft 221 kts 299°
2026-05-06 21:18 44.18819 9.35648 6131 ft 199 kts 266°
2026-05-06 21:18 44.18804 9.33806 6231 ft 187 kts 265°
2026-05-06 21:18 44.19019 9.31948 5750 ft 204 kts 290°
2026-05-06 21:19 44.20000 9.30451 5634 ft 223 kts 326°
2026-05-06 21:19 44.21505 9.30019 5326 ft 230 kts
2026-05-06 21:19 44.23091 9.30234 5031 ft 228 kts 353°
2026-05-06 21:19 44.24493 9.29360 4734 ft 221 kts 314°
2026-05-06 21:20 44.25579 9.27870 5224 ft 221 kts 312°
2026-05-06 21:20 44.26741 9.26433 5760 ft 225 kts 315°
2026-05-06 21:20 44.27864 9.24933 5953 ft 221 kts 302°
2026-05-06 21:20 44.28351 9.22986 5983 ft 211 kts 269°
2026-05-06 21:21 44.28294 9.20964 6006 ft 208 kts 262°
2026-05-06 21:21 44.28220 9.18947 6002 ft 208 kts 263°
2026-05-06 21:21 44.28154 9.16926 5996 ft 208 kts 263°
2026-05-06 21:21 44.28097 9.14914 5989 ft 208 kts 263°
2026-05-06 21:22 44.28042 9.12890 5986 ft 209 kts 263°
2026-05-06 21:22 44.27988 9.10867 5988 ft 208 kts 263°
2026-05-06 21:22 44.27933 9.08854 5990 ft 208 kts 263°
2026-05-06 21:22 44.27875 9.06819 5982 ft 210 kts 262°
2026-05-06 21:23 44.27820 9.04781 5984 ft 210 kts 262°
2026-05-06 21:23 44.27763 9.02738 5980 ft 211 kts 262°
2026-05-06 21:23 44.27706 9.00697 5979 ft 210 kts 262°
2026-05-06 21:23 44.27651 8.98654 5978 ft 211 kts 262°
2026-05-06 21:24 44.27594 8.96610 5978 ft 210 kts 262°
2026-05-06 21:24 44.27534 8.94569 5978 ft 211 kts 261°
2026-05-06 21:24 44.27475 8.92528 5966 ft 211 kts 262°
2026-05-06 21:24 44.27415 8.90481 5967 ft 211 kts 262°
2026-05-06 21:25 44.27356 8.88440 5966 ft 211 kts 262°
2026-05-06 21:25 44.27296 8.86389 5967 ft 212 kts 262°
2026-05-06 21:25 44.27236 8.84341 5953 ft 212 kts 263°
2026-05-06 21:25 44.27177 8.82281 5959 ft 213 kts 264°
2026-05-06 21:26 44.27114 8.80216 5962 ft 213 kts 263°
2026-05-06 21:26 44.27052 8.78155 5956 ft 213 kts 263°
2026-05-06 21:26 44.26989 8.76092 5956 ft 212 kts 263°
2026-05-06 21:26 44.26925 8.74035 5956 ft 212 kts 263°
2026-05-06 21:27 44.26861 8.71980 5950 ft 212 kts 263°
2026-05-06 21:27 44.26883 8.69927 5956 ft 213 kts 274°
2026-05-06 21:27 44.27245 8.67935 5822 ft 211 kts 282°
2026-05-06 21:27 44.27633 8.65948 5492 ft 212 kts 281°
2026-05-06 21:28 44.28018 8.63962 5212 ft 212 kts 281°
2026-05-06 21:28 44.28443 8.61985 4966 ft 214 kts 288°
2026-05-06 21:28 44.29385 8.60358 4903 ft 224 kts 322°
2026-05-06 21:28 44.30851 8.59742 4685 ft 227 kts 358°
2026-05-06 21:29 44.32408 8.60201 4304 ft 226 kts 16°
2026-05-06 21:29 44.33912 8.60806 3934 ft 224 kts 17°
2026-05-06 21:29 44.35262 8.61823 3577 ft 220 kts 46°
2026-05-06 21:29 44.36081 8.63549 3218 ft 215 kts 64°
2026-05-06 21:30 44.36808 8.65361 2853 ft 213 kts 63°
2026-05-06 21:30 44.37542 8.67156 2570 ft 211 kts 62°
2026-05-06 21:30 44.38265 8.68918 2419 ft 198 kts 62°
2026-05-06 21:30 44.38923 8.70529 2171 ft 187 kts 63°
2026-05-06 21:31 44.39564 8.72106 1970 ft 188 kts 65°
2026-05-06 21:31 44.40212 8.73691 1732 ft 187 kts 63°
2026-05-06 21:31 44.40837 8.75220 1489 ft 165 kts 63°
2026-05-06 21:31 44.41376 8.76445 1351 ft 139 kts 62°
2026-05-06 21:32 44.41787 8.77637 1108 ft 135 kts 75°
2026-05-06 21:32 44.41913 8.80225 477 ft 130 kts 98°
2026-05-06 21:32 44.41762 8.81432 229 ft 126 kts 111°
2026-05-06 21:33 44.41514 8.82585 38 ft 122 kts 111°
2026-05-06 21:33 44.41310 8.83616 16 ft 82 kts 107°
2026-05-06 21:33 44.41229 8.84036 16 ft 32 kts 103°
2026-05-06 21:33 44.41211 8.84142 17 ft 2 kts 105°
2026-05-06 21:34 44.41204 8.84179 17 ft 6 kts 99°
2026-05-06 21:34 44.41223 8.84240 18 ft 8 kts 52°
2026-05-06 21:34 44.41262 8.84311 16 ft 11 kts 52°
2026-05-06 21:34 44.41313 8.84403 15 ft 13 kts 52°
2026-05-06 21:35 44.41376 8.84516 15 ft 16 kts 53°
2026-05-06 21:35 44.41412 8.84596 15 ft 10 kts 81°
2026-05-06 21:35 44.41409 8.84660 15 ft 1 kts 103°
2026-05-06 21:35 44.41406 8.84680 15 ft 4 kts 103°
2026-05-06 21:36 44.41397 8.84728 15 ft 7 kts 103°
2026-05-06 21:36 44.41384 8.84806 18 ft 10 kts 105°
2026-05-06 21:36 44.41364 8.84903 15 ft 1 kts 105°
2026-05-06 21:36 44.41360 8.84924 15 ft 4 kts 105°
2026-05-06 21:37 44.41350 8.84974 16 ft 7 kts 105°
2026-05-06 21:37 44.41340 8.85024 15 ft 9 kts 104°
2026-05-06 21:37 44.41335 8.85053 15 ft 3 kts 104°
2026-05-06 21:37 44.41347 8.85092 16 ft 6 kts 21°
2026-05-06 21:38 44.41388 8.85115 15 ft 0 kts 20°